TimeEST,TemperatureF,Dew PointF,Humidity,Sea Level PressureIn,VisibilityMPH,Wind Direction,Wind SpeedMPH,Gust SpeedMPH,PrecipitationIn,Events,Conditions,WindDirDegrees,DateUTC
12:10 AM,50.0,30.2,47,30.12,10.0,ESE,5.8,-,N/A,,Scattered Clouds,120,2014-03-01 05:10:00
12:30 AM,50.0,30.2,47,30.14,10.0,Calm,Calm,-,N/A,,Scattered Clouds,0,2014-03-01 05:30:00
12:50 AM,48.2,32.0,54,30.15,10.0,WNW,3.5,-,N/A,,Clear,290,2014-03-01 05:50:00
1:10 AM,46.4,33.8,62,30.15,10.0,Calm,Calm,-,N/A,,Clear,0,2014-03-01 06:10:00
1:30 AM,46.4,32.0,57,30.16,10.0,NW,3.5,-,N/A,,Scattered Clouds,320,2014-03-01 06:30:00
1:50 AM,46.4,32.0,57,30.17,10.0,Calm,Calm,-,N/A,,Clear,0,2014-03-01 06:50:00
2:10 AM,44.6,32.0,61,30.17,10.0,Calm,Calm,-,N/A,,Clear,0,2014-03-01 07:10:00
2:30 AM,42.8,33.8,70,30.16,10.0,NNE,3.5,-,N/A,,Clear,20,2014-03-01 07:30:00
2:50 AM,42.8,33.8,70,30.16,10.0,NNE,3.5,-,N/A,,Clear,30,2014-03-01 07:50:00
3:10 AM,42.8,33.8,70,30.16,10.0,NE,4.6,-,N/A,,Mostly Cloudy,50,2014-03-01 08:10:00
3:30 AM,42.8,37.4,81,30.16,10.0,East,3.5,-,N/A,,Overcast,100,2014-03-01 08:30:00
3:50 AM,44.6,33.8,66,30.16,10.0,East,3.5,-,N/A,,Overcast,90,2014-03-01 08:50:00
4:10 AM,44.6,33.8,66,30.17,10.0,Calm,Calm,-,N/A,,Overcast,0,2014-03-01 09:10:00
4:30 AM,44.6,35.6,71,30.17,10.0,Calm,Calm,-,N/A,,Overcast,0,2014-03-01 09:30:00
4:50 AM,44.6,35.6,71,30.18,10.0,Calm,Calm,-,N/A,,Overcast,0,2014-03-01 09:50:00
5:10 AM,44.6,35.6,71,30.19,10.0,Calm,Calm,-,N/A,,Overcast,0,2014-03-01 10:10:00
5:30 AM,44.6,37.4,76,30.20,10.0,Calm,Calm,-,N/A,,Overcast,0,2014-03-01 10:30:00
5:50 AM,44.6,37.4,76,30.21,10.0,SSE,4.6,-,N/A,,Overcast,150,2014-03-01 10:50:00
6:10 AM,44.6,37.4,76,30.21,10.0,ESE,5.8,-,N/A,,Overcast,120,2014-03-01 11:10:00
6:30 AM,44.6,37.4,76,30.22,10.0,East,3.5,-,N/A,,Overcast,100,2014-03-01 11:30:00
6:50 AM,44.6,39.2,81,30.24,10.0,NE,3.5,-,N/A,,Overcast,40,2014-03-01 11:50:00
7:10 AM,44.6,39.2,81,30.25,10.0,ENE,4.6,-,N/A,,Overcast,60,2014-03-01 12:10:00
7:30 AM,44.6,39.2,81,30.25,10.0,NE,3.5,-,N/A,,Overcast,50,2014-03-01 12:30:00
7:50 AM,44.6,41.0,87,30.26,10.0,East,3.5,-,N/A,,Overcast,90,2014-03-01 12:50:00
8:10 AM,44.6,41.0,87,30.27,10.0,East,3.5,-,N/A,,Mostly Cloudy,100,2014-03-01 13:10:00
8:30 AM,46.4,42.8,87,30.28,10.0,East,4.6,-,N/A,,Mostly Cloudy,100,2014-03-01 13:30:00
8:50 AM,48.2,42.8,82,30.28,10.0,ESE,4.6,-,N/A,,Overcast,110,2014-03-01 13:50:00
9:10 AM,48.2,44.6,87,30.28,10.0,SE,5.8,-,N/A,,Overcast,130,2014-03-01 14:10:00
9:30 AM,50.0,44.6,82,30.29,10.0,ESE,5.8,-,N/A,,Scattered Clouds,110,2014-03-01 14:30:00
9:50 AM,51.8,44.6,76,30.30,10.0,East,5.8,-,N/A,,Clear,100,2014-03-01 14:50:00
10:10 AM,53.6,44.6,72,30.30,10.0,Calm,Calm,-,N/A,,Clear,0,2014-03-01 15:10:00
10:30 AM,55.4,44.6,67,30.30,10.0,East,4.6,-,N/A,,Clear,90,2014-03-01 15:30:00
10:50 AM,57.2,42.8,59,30.30,10.0,Calm,Calm,-,N/A,,Mostly Cloudy,0,2014-03-01 15:50:00
11:10 AM,59.0,41.0,51,30.30,10.0,SSE,5.8,-,N/A,,Mostly Cloudy,160,2014-03-01 16:10:00
11:30 AM,59.0,39.2,48,30.29,10.0,Calm,Calm,-,N/A,,Mostly Cloudy,0,2014-03-01 16:30:00
11:50 AM,60.8,41.0,48,30.29,10.0,South,4.6,-,N/A,,Scattered Clouds,170,2014-03-01 16:50:00
12:10 PM,60.8,37.4,42,30.27,10.0,Calm,Calm,-,N/A,,Clear,0,2014-03-01 17:10:00
12:30 PM,62.6,41.0,45,30.27,10.0,South,4.6,-,N/A,,Clear,180,2014-03-01 17:30:00
12:50 PM,62.6,37.4,39,30.26,10.0,SSW,4.6,-,N/A,,Clear,200,2014-03-01 17:50:00
1:10 PM,62.6,37.4,39,30.25,10.0,SE,3.5,-,N/A,,Clear,130,2014-03-01 18:10:00
1:30 PM,62.6,37.4,39,30.23,10.0,Calm,Calm,-,N/A,,Clear,0,2014-03-01 18:30:00
1:50 PM,64.4,37.4,37,30.23,10.0,South,3.5,-,N/A,,Clear,180,2014-03-01 18:50:00
2:10 PM,64.4,37.4,37,30.22,10.0,SW,6.9,-,N/A,,Clear,220,2014-03-01 19:10:00
2:30 PM,64.4,37.4,37,30.21,10.0,Calm,Calm,-,N/A,,Clear,0,2014-03-01 19:30:00
2:50 PM,64.4,37.4,37,30.21,10.0,West,3.5,-,N/A,,Clear,260,2014-03-01 19:50:00
3:10 PM,64.4,37.4,37,30.20,10.0,SSE,5.8,-,N/A,,Clear,150,2014-03-01 20:10:00
3:30 PM,64.4,37.4,37,30.20,10.0,SE,4.6,-,N/A,,Clear,130,2014-03-01 20:30:00
3:50 PM,66.2,39.2,37,30.19,10.0,SE,8.1,-,N/A,,Clear,130,2014-03-01 20:50:00
4:10 PM,64.4,37.4,37,30.19,10.0,Calm,Calm,-,N/A,,Clear,0,2014-03-01 21:10:00
4:30 PM,66.2,37.4,35,30.19,10.0,SSW,4.6,-,N/A,,Clear,200,2014-03-01 21:30:00
4:50 PM,66.2,37.4,35,30.19,10.0,Calm,Calm,-,N/A,,Clear,0,2014-03-01 21:50:00
5:10 PM,66.2,37.4,35,30.20,10.0,SE,4.6,-,N/A,,Clear,130,2014-03-01 22:10:00
5:30 PM,64.4,37.4,37,30.20,10.0,SE,4.6,-,N/A,,Clear,140,2014-03-01 22:30:00
5:50 PM,64.4,41.0,42,30.20,10.0,SE,3.5,-,N/A,,Clear,130,2014-03-01 22:50:00
6:10 PM,62.6,41.0,45,30.20,10.0,SE,3.5,-,N/A,,Clear,130,2014-03-01 23:10:00
6:30 PM,59.0,41.0,51,30.21,10.0,ESE,3.5,-,N/A,,Clear,120,2014-03-01 23:30:00
6:50 PM,59.0,41.0,51,30.21,10.0,Calm,Calm,-,N/A,,Clear,0,2014-03-01 23:50:00
7:10 PM,55.4,41.0,58,30.21,10.0,Calm,Calm,-,N/A,,Clear,0,2014-03-02 00:10:00
7:30 PM,53.6,41.0,62,30.22,10.0,Calm,Calm,-,N/A,,Clear,0,2014-03-02 00:30:00
7:50 PM,53.6,42.8,67,30.22,10.0,Calm,Calm,-,N/A,,Clear,0,2014-03-02 00:50:00
8:10 PM,53.6,42.8,67,30.23,10.0,Calm,Calm,-,N/A,,Clear,0,2014-03-02 01:10:00
8:30 PM,50.0,42.8,76,30.23,10.0,Calm,Calm,-,N/A,,Clear,0,2014-03-02 01:30:00
8:50 PM,50.0,42.8,76,30.23,10.0,Calm,Calm,-,N/A,,Clear,0,2014-03-02 01:50:00
9:10 PM,50.0,42.8,76,30.24,10.0,Calm,Calm,-,N/A,,Clear,0,2014-03-02 02:10:00
9:30 PM,50.0,42.8,76,30.25,10.0,Calm,Calm,-,N/A,,Clear,0,2014-03-02 02:30:00
9:50 PM,50.0,42.8,76,30.25,10.0,Calm,Calm,-,N/A,,Clear,0,2014-03-02 02:50:00
10:10 PM,50.0,42.8,76,30.26,10.0,Calm,Calm,-,N/A,,Clear,0,2014-03-02 03:10:00
10:30 PM,46.4,42.8,87,30.26,10.0,Calm,Calm,-,N/A,,Clear,0,2014-03-02 03:30:00
10:50 PM,46.4,42.8,87,30.26,10.0,Calm,Calm,-,N/A,,Clear,0,2014-03-02 03:50:00
11:10 PM,46.4,41.0,81,30.26,10.0,Calm,Calm,-,N/A,,Clear,0,2014-03-02 04:10:00
11:30 PM,44.6,41.0,87,30.24,10.0,Calm,Calm,-,N/A,,Clear,0,2014-03-02 04:30:00
11:50 PM,48.2,41.0,76,30.24,10.0,Calm,Calm,-,N/A,,Clear,0,2014-03-02 04:50:00